CHINASAT 2C (ZX 2C) 1 41021U 15063A 21060.69741418 -.00000332 00000-0 00000-0 0 9991 2 41021 0.0544 291.5684 0002305 81.9244 140.6743 1.00272688 19623 CZ-3B R/B 1 41022U 15063B 21060.45977572 .00018457 -38654-6 69826-3 0 9991 2 41022 26.5276 214.8967 7027035 56.0338 351.9853 2.64846254 47258